Temperature
7 7 7 8 8 9 10 10 11 11 12 12 13 14 15 15 15 15 16 16 16 16 16 16 16 16 16 16 16 16 16 16 15 15 15 15 15 15 14 14 14 14 14 14
7 7 8 8 8 8 8 9 10 10 11 12 13 13 14 15 15 15 16 16 16 15 15 15 16 16 16 16 16 16 16 16 15 15 15 15 15 15 14 14 14 14 14 14
7 7 7 7 7 8 8 9 10 10 10 11 12 12 14 15 14 14 14 15 15 15 15 15 15 15 16 16 16 16 16 16 16 15 15 15 14 14 14 14 14 14 14 14
7 7 7 7 7 8 8 9 10 10 10 11 11 12 14 15 15 15 15 15 15 15 15 15 15 15 16 16 16 16 16 16 16 15 15 15 14 14 14 15 15 14 14 14
6 7 7 7 7 8 8 9 9 10 10 10 11 12 14 14 14 15 16 15 15 14 14 14 15 15 15 15 15 16 16 16 16 15 15 15 15 14 14 14 14 14 14 14
6 7 7 7 7 8 8 8 9 9 9 9 11 11 13 14 15 15 16 15 14 14 14 14 14 15 15 15 15 15 15 15 15 15 15 15 15 14 14 14 14 14 14 14
6 6 7 7 7 7 7 8 8 8 8 10 11 11 13 14 14 14 15 14 13 13 13 13 14 14 14 15 15 15 15 15 15 15 15 14 14 14 14 14 14 14 13 13
6 6 6 7 7 7 7 8 9 9 10 10 9 11 14 13 12 11 12 12 11 12 12 12 13 13 14 14 14 14 14 14 14 14 14 14 14 14 13 13 13 13 13 13
7 7 7 7 7 7 7 7 8 9 9 10 11 11 13 12 12 12 11 11 11 11 11 11 12 13 13 13 13 14 13 13 13 13 13 13 13 13 13 13 13 12 12 12
6 6 6 7 7 7 7 8 8 8 9 10 11 11 13 13 13 12 12 11 11 10 10 10 11 12 12 12 12 12 12 12 12 13 12 12 12 12 12 12 12 12 11 11
6 7 6 6 6 7 7 7 7 8 9 10 11 12 12 12 12 12 12 11 10 9 9 9 10 10 11 11 11 11 11 11 11 11 11 11 11 11 11 11 11 11 10 10
6 7 6 7 7 7 7 8 8 8 8 9 11 12 12 11 11 10 10 9 9 8 8 8 9 9 10 10 10 10 10 11 11 11 11 10 10 10 10 10 10 10 9 9
6 7 7 7 7 6 7 7 8 8 8 9 10 11 11 10 10 9 9 8 8 8 8 8 8 9 9 9 10 10 10 10 10 10 10 10 9 9 9 9 9 9 9 9
7 7 7 8 8 7 7 7 7 7 8 9 10 11 11 11 11 10 9 8 8 8 8 8 8 8 9 9 9 9 9 9 9 9 9 9 9 8 8 8 8 8 8 7
6 7 7 7 7 7 7 7 7 7 8 9 10 10 11 11 11 10 9 8 8 8 8 8 8 8 9 9 9 9 9 9 8 8 8 8 8 7 7 7 7 7 6 6
6 6 7 7 7 7 7 7 7 7 8 8 9 9 10 10 9 9 9 8 8 8 8 8 8 8 8 9 9 8 8 8 8 8 7 7 7 6 6 6 6 5 5 5
5 6 7 7 7 7 7 8 8 8 8 8 9 10 10 10 9 9 9 8 8 8 8 8 8 8 8 9 8 8 8 8 7 7 6 6 6 5 5 5 5 5 4 4
4 6 6 7 7 7 8 8 8 8 8 8 8 9 9 9 8 8 8 8 8 8 8 8 8 8 8 8 8 8 7 7 7 6 6 5 5 5 4 4 4 4 3 3
4 5 6 7 7 8 8 8 7 7 8 8 8 8 8 8 8 8 7 7 7 8 8 8 8 8 8 8 8 8 7 7 6 6 6 5 5 4 4 4 3 3 3 3
4 5 6 6 7 7 8 7 7 7 8 8 7 8 8 8 9 9 7 7 7 7 8 8 8 8 8 8 8 7 7 6 6 6 5 4 4 4 3 3 3 2 2 2
5 5 6 6 6 7 7 6 7 7 7 6 6 6 7 7 7 6 6 6 7 7 7 7 7 7 7 7 7 7 6 6 5 5 4 4 3 3 3 2 2 2 1 1
5 6 6 6 6 6 6 6 6 6 6 5 5 5 5 5 5 6 6 6 6 7 7 7 7 7 7 6 6 6 6 5 5 4 4 3 3 2 2 2 1 1 1 1
4 5 5 6 6 5 4 5 4 4 4 4 5 5 5 5 5 5 6 6 6 6 6 6 6 6 6 6 5 5 5 5 4 4 3 3 2 2 2 1 1 1 1 0
4 4 4 4 5 4 4 4 4 4 4 4 4 4 5 5 5 5 5 5 5 5 5 5 5 5 5 5 5 4 4 4 4 3 3 2 2 1 1 1 1 1 0 0
3 3 4 4 4 4 4 3 3 3 3 3 4 4 4 4 5 5 5 5 5 5 5 5 5 4 4 4 4 4 3 3 3 2 2 2 1 1 1 1 1 0 0 -0
2 2 3 3 3 3 3 2 2 2 2 3 3 3 4 4 4 4 4 4 4 4 4 4 4 4 4 3 3 3 3 3 2 2 2 1 1 1 1 1 0 0 -0 -0
Wind_Speed
4 5 7 8 8 4 6 10 11 9 8 12 16 16 12 9 10 12 13 13 14 14 11 8 7 7 8 9 11 12 13 12 11 8 8 7 8 7 7 7 9 11 11 11
5 5 5 5 5 5 6 9 10 6 6 9 12 16 14 13 13 13 13 14 14 12 11 9 7 7 8 9 10 11 12 12 11 9 8 6 6 6 7 7 8 10 11 11
4 2 5 7 7 7 8 9 10 7 4 6 8 13 17 16 15 14 14 13 13 13 13 11 9 8 7 7 9 9 10 10 11 10 7 4 4 3 5 7 7 9 11 11
3 3 5 7 7 7 7 8 8 8 7 6 10 9 15 17 18 18 18 16 15 13 12 11 9 8 8 7 6 8 8 9 9 10 9 10 8 8 8 6 7 7 9 9
3 5 7 7 7 6 3 4 7 7 6 5 8 8 9 11 18 21 20 19 17 15 14 12 10 9 7 6 5 6 7 8 8 9 10 10 9 8 6 6 7 7 7 8
2 2 3 4 3 4 4 5 5 4 4 7 12 11 9 10 15 16 17 17 16 14 13 12 9 7 6 5 5 6 7 7 7 9 9 10 10 9 8 8 7 6 5 5
2 3 3 3 5 5 6 7 5 6 7 7 8 10 9 6 8 11 12 12 12 11 11 11 10 9 8 7 7 7 7 7 7 8 8 8 9 9 10 9 8 7 5 5
3 3 5 5 5 6 8 6 4 5 7 4 7 10 6 3 4 7 8 8 8 10 10 10 10 8 8 8 7 7 8 7 6 6 6 6 6 5 5 6 5 5 5 4
3 2 3 5 4 5 6 5 3 1 1 3 6 6 7 5 6 6 6 7 7 8 8 8 8 7 7 7 7 8 8 7 6 5 5 5 4 4 4 4 4 3 3 3
1 2 3 4 4 3 3 4 3 4 4 4 6 7 5 6 6 4 4 5 5 6 6 7 6 7 7 7 6 7 6 6 5 5 4 3 3 3 3 3 3 3 2 2
1 2 3 4 6 7 6 5 4 3 3 3 4 3 0 2 2 3 3 3 3 4 5 6 6 7 7 7 7 7 6 6 5 4 4 4 4 3 3 2 2 2 2 2
2 1 2 3 2 3 6 7 7 4 4 3 3 1 2 2 2 2 2 2 2 3 4 5 6 7 8 8 7 6 6 5 5 4 4 4 4 3 3 2 2 1 1 1
2 2 2 3 3 4 5 7 7 4 3 4 5 3 1 0 1 1 2 2 3 4 5 6 7 7 7 7 7 6 5 5 4 4 4 4 3 3 3 3 2 2 2 2
1 2 3 3 2 4 5 7 9 8 5 6 8 7 5 3 2 2 2 3 3 4 6 6 7 7 7 6 6 6 5 5 5 4 4 4 3 3 3 3 3 2 2 2
1 2 3 5 5 5 7 9 11 12 11 9 9 10 10 8 7 6 6 5 5 5 6 7 7 7 7 7 6 6 5 5 5 5 5 4 4 3 3 3 3 3 3 3
3 3 3 3 3 5 7 10 12 13 13 14 14 13 11 9 8 8 8 7 7 8 7 7 7 8 8 8 7 7 6 6 6 5 5 5 5 4 4 4 3 3 3 3
3 3 3 3 4 4 5 8 11 10 10 10 12 11 10 9 8 8 7 8 8 8 8 8 8 8 8 8 8 8 7 7 6 6 5 6 5 5 5 4 4 4 3 3
4 4 2 3 3 4 3 3 5 8 8 10 11 11 10 8 6 6 6 7 7 7 7 8 7 7 7 7 7 7 7 7 7 6 6 6 6 6 5 5 4 4 3 3
7 4 2 2 3 4 4 3 3 4 4 5 7 8 7 4 3 3 3 4 5 6 5 5 5 6 6 7 7 7 7 7 7 7 7 7 7 7 6 6 5 4 4 4
4 4 3 3 3 3 3 5 3 3 2 5 5 5 4 2 2 2 4 3 2 1 2 2 3 4 5 6 7 7 7 7 8 7 7 7 7 7 7 6 6 5 5 4
1 2 3 4 4 3 5 6 2 3 3 6 6 5 3 1 2 3 4 4 3 2 2 2 3 4 4 5 6 6 6 7 6 5 6 6 7 7 7 6 6 5 5 5
2 2 3 3 4 3 4 3 1 4 5 5 5 5 3 2 2 3 3 3 3 3 3 2 2 2 3 4 5 5 5 5 5 5 6 6 7 6 6 6 6 6 6 6
3 3 3 3 3 4 4 4 5 5 5 5 5 5 3 2 2 2 2 2 3 3 2 2 2 2 2 3 4 4 4 4 5 6 6 6 6 6 6 7 7 6 6 5
3 3 4 5 5 7 6 6 6 6 6 7 6 5 3 2 2 1 1 1 2 2 2 1 1 1 1 2 3 3 3 5 6 6 6 6 6 6 6 6 6 6 6 6
6 5 5 7 7 8 6 6 7 7 6 6 6 4 3 2 2 2 2 1 1 1 1 1 1 1 2 2 3 3 4 5 6 6 6 6 6 6 6 6 6 7 7 7
4 4 5 5 7 7 9 10 10 8 8 7 7 5 4 3 3 2 2 2 2 2 1 2 2 2 2 2 3 3 4 5 6 6 6 5 6 6 6 6 5 7 7 9
Wind_Direction
152 180 191 194 207 227 204 200 199 201 193 206 220 227 229 228 227 225 221 219 219 220 216 209 204 201 198 201 205 205 203 201 193 189 191 196 204 203 204 208 211 208 210 209
148 196 200 187 202 203 207 202 195 187 196 211 226 234 234 234 233 232 228 224 221 217 214 209 201 195 193 195 201 203 203 198 194 195 195 200 201 208 209 207 213 213 213 210
174 140 165 185 191 187 205 206 194 182 171 214 225 237 232 231 233 234 234 233 229 223 219 212 205 199 193 193 198 200 199 194 194 194 189 181 185 191 201 209 213 215 214 214
180 189 177 186 202 198 203 206 198 187 191 203 208 232 226 222 225 228 228 226 228 224 222 217 212 207 200 196 193 200 196 193 193 192 194 198 205 214 214 210 211 213 214 217
176 178 184 197 203 197 194 184 188 192 205 223 212 231 232 210 225 226 226 225 226 225 223 219 214 211 206 194 190 194 193 194 191 194 199 205 215 221 214 208 212 214 214 217
179 178 195 199 184 187 157 144 144 171 204 229 214 219 239 214 223 223 222 224 225 225 224 220 215 207 205 191 185 189 187 191 192 196 201 206 212 213 210 211 214 215 214 215
161 184 187 171 159 183 194 167 163 184 205 226 191 214 242 233 230 231 229 226 224 221 219 214 209 204 200 191 185 186 185 188 190 195 202 210 216 218 218 218 219 218 217 218
172 172 185 185 192 183 196 210 216 202 198 192 186 222 237 246 251 248 246 242 235 225 218 214 207 203 196 189 183 180 183 183 183 189 195 201 207 214 218 220 220 219 219 219
192 155 156 180 178 180 180 208 262 301 184 202 208 238 261 239 236 235 234 231 228 222 215 210 199 192 187 182 180 176 174 171 172 175 178 181 187 194 198 201 208 213 213 213
239 157 162 159 161 194 213 175 189 204 203 213 214 232 222 201 210 220 225 225 223 215 207 198 186 176 170 168 166 163 164 161 158 158 156 153 154 158 167 177 188 195 195 203
222 177 147 168 196 192 180 184 209 214 253 241 212 206 162 240 243 241 237 233 220 201 191 182 171 164 159 157 158 154 155 152 150 149 146 145 142 143 148 153 162 171 175 190
217 193 180 204 204 218 218 211 203 213 215 240 249 231 58 286 289 262 244 228 197 182 174 168 162 160 160 160 159 158 158 155 152 150 149 144 139 139 140 137 129 132 142 138
178 191 169 170 182 188 217 219 215 223 236 229 231 226 91 4 5 220 216 199 174 171 170 167 166 168 168 166 164 163 162 158 153 151 149 144 142 141 135 126 116 112 116 116
214 238 243 237 238 186 209 212 211 214 230 240 242 251 256 266 268 262 236 227 209 189 185 181 178 179 176 173 171 170 167 161 156 153 152 153 149 143 135 125 117 112 112 112
308 269 259 269 260 233 234 224 218 223 235 248 257 259 265 271 271 269 259 248 231 214 203 196 193 189 184 180 178 176 171 166 163 162 163 161 152 144 139 134 126 120 117 112
329 286 276 277 264 242 249 240 231 235 242 250 261 268 271 277 273 264 256 244 233 227 219 211 205 201 196 192 187 182 179 173 171 173 172 164 159 156 154 148 141 135 129 123
308 294 285 285 289 271 271 255 234 233 234 242 252 264 277 274 267 263 258 246 238 234 227 219 213 209 205 199 191 187 182 174 176 179 176 173 170 167 164 157 153 150 141 133
267 281 281 290 278 262 302 310 259 245 254 253 260 271 276 277 287 293 279 258 245 237 230 223 217 212 205 195 188 183 176 177 180 183 183 179 177 174 169 167 166 160 151 147
228 254 270 268 267 275 298 305 277 247 274 290 274 278 282 281 276 293 315 281 258 247 237 227 217 206 195 188 180 175 178 183 188 192 189 185 182 179 177 177 174 165 158 155
202 236 257 260 267 278 330 339 328 257 281 350 326 308 301 279 256 329 9 355 336 290 226 203 187 178 179 176 172 176 184 191 200 198 191 185 184 184 184 182 176 171 168 166
227 240 247 255 261 278 330 327 287 240 344 348 341 330 323 291 316 347 358 8 16 37 79 130 148 158 164 165 172 184 193 204 202 189 184 183 184 185 183 177 176 173 170 167
272 256 241 245 241 264 355 359 331 326 335 337 339 339 337 336 355 358 9 23 35 49 66 95 123 130 145 166 179 192 205 200 183 180 183 183 182 179 176 176 175 176 174 174
263 277 287 267 277 325 328 315 321 325 316 325 331 333 330 334 350 355 6 21 32 41 50 61 100 121 151 182 196 206 202 182 179 183 186 185 182 181 180 181 180 179 184 189
296 307 279 280 286 305 314 328 331 332 322 321 321 321 320 316 325 341 351 7 18 22 28 38 75 150 199 206 217 220 199 185 186 189 189 185 185 186 185 187 190 192 194 197
288 295 285 279 297 307 307 325 331 332 335 336 333 326 317 309 310 314 309 319 331 339 343 322 269 263 263 242 233 222 202 192 194 195 194 192 194 192 192 197 203 206 208 206
262 274 284 289 309 300 301 312 314 311 313 315 314 316 321 306 291 298 291 298 300 301 308 297 286 277 273 257 244 226 207 199 198 200 201 200 197 197 197 197 208 218 221 219
Height
1492 1492 1491 1491 1493 1493 1492 1491 1492 1494 1496 1497 1495 1495 1497 1499 1500 1500 1501 1503 1505 1507 1510 1512 1514 1516 1518 1521 1525 1527 1530 1533 1536 1538 1541 1543 1545 1547 1549 1551 1553 1554 1555 1556
1493 1492 1492 1494 1496 1496 1495 1494 1493 1496 1497 1497 1495 1494 1494 1496 1496 1497 1498 1499 1502 1504 1506 1508 1510 1513 1515 1518 1521 1524 1527 1530 1533 1535 1538 1540 1542 1544 1546 1548 1549 1551 1552 1553
1490 1492 1493 1495 1495 1496 1496 1495 1493 1495 1497 1496 1497 1494 1490 1491 1493 1494 1495 1496 1498 1500 1503 1505 1507 1509 1512 1515 1518 1521 1524 1526 1529 1532 1535 1536 1538 1540 1542 1543 1545 1546 1548 1549
1491 1493 1494 1494 1495 1494 1494 1494 1494 1495 1497 1495 1495 1490 1481 1482 1486 1488 1490 1492 1494 1496 1499 1501 1503 1506 1509 1512 1515 1518 1520 1523 1526 1528 1531 1532 1534 1536 1538 1539 1541 1542 1543 1544
1490 1492 1492 1494 1494 1495 1494 1495 1495 1496 1498 1498 1494 1491 1477 1479 1480 1479 1482 1486 1489 1492 1495 1497 1500 1503 1505 1508 1511 1514 1517 1519 1522 1524 1526 1528 1530 1533 1534 1535 1536 1538 1538 1539
1491 1493 1493 1493 1495 1496 1497 1497 1498 1499 1500 1499 1488 1488 1475 1472 1472 1473 1477 1481 1484 1487 1490 1493 1496 1499 1501 1504 1507 1510 1513 1515 1518 1520 1522 1524 1526 1528 1529 1531 1532 1532 1533 1533
1491 1493 1494 1494 1496 1498 1498 1497 1499 1500 1498 1488 1483 1484 1473 1467 1470 1472 1474 1477 1480 1483 1485 1488 1490 1493 1496 1499 1503 1506 1508 1511 1514 1516 1518 1520 1522 1523 1524 1525 1527 1527 1527 1528
1488 1489 1492 1493 1493 1493 1496 1495 1490 1486 1484 1481 1487 1479 1467 1469 1472 1473 1474 1475 1477 1478 1481 1483 1485 1488 1492 1495 1498 1501 1504 1507 1509 1511 1513 1515 1517 1518 1519 1520 1521 1521 1522 1522
1485 1488 1491 1492 1493 1493 1494 1493 1492 1489 1486 1483 1477 1473 1468 1468 1469 1470 1471 1472 1473 1475 1477 1479 1481 1484 1487 1490 1493 1496 1499 1502 1504 1507 1509 1510 1512 1513 1514 1515 1516 1516 1517 1517
1488 1488 1490 1492 1494 1495 1494 1492 1493 1490 1484 1477 1473 1469 1462 1463 1465 1467 1469 1470 1471 1473 1474 1476 1478 1480 1483 1486 1489 1492 1495 1498 1500 1502 1504 1505 1507 1508 1509 1510 1510 1511 1511 1512
1489 1487 1490 1491 1491 1489 1493 1493 1490 1486 1482 1475 1470 1463 1462 1463 1465 1466 1467 1469 1470 1471 1472 1474 1475 1478 1480 1484 1487 1490 1492 1495 1497 1498 1500 1501 1503 1504 1505 1505 1506 1506 1506 1507
1489 1486 1487 1488 1488 1489 1488 1486 1486 1485 1483 1479 1470 1467 1464 1466 1467 1467 1468 1469 1469 1470 1471 1472 1474 1476 1479 1481 1484 1487 1489 1492 1493 1495 1497 1498 1499 1500 1500 1501 1501 1502 1502 1502
1488 1486 1484 1484 1489 1490 1488 1485 1484 1484 1482 1478 1472 1467 1465 1466 1467 1468 1468 1468 1469 1469 1470 1472 1473 1475 1478 1480 1483 1485 1487 1489 1491 1492 1493 1494 1495 1496 1496 1497 1497 1498 1498 1498
1488 1485 1482 1477 1475 1480 1482 1483 1483 1484 1481 1474 1469 1464 1464 1465 1466 1467 1468 1468 1469 1469 1470 1471 1473 1475 1477 1479 1481 1483 1485 1487 1488 1489 1490 1491 1492 1492 1493 1493 1493 1494 1494 1494
1488 1484 1481 1480 1479 1479 1478 1478 1479 1480 1476 1473 1467 1466 1463 1464 1465 1466 1467 1468 1468 1469 1469 1470 1472 1473 1475 1477 1479 1481 1483 1484 1485 1487 1487 1488 1488 1489 1489 1490 1490 1490 1490 1490
1489 1484 1480 1477 1477 1477 1476 1474 1475 1475 1474 1471 1468 1465 1463 1465 1465 1465 1465 1465 1466 1467 1468 1469 1470 1472 1474 1475 1477 1479 1480 1482 1483 1484 1485 1485 1485 1486 1486 1487 1487 1487 1487 1487
1490 1485 1480 1474 1475 1474 1471 1469 1469 1469 1468 1467 1465 1462 1461 1462 1462 1462 1462 1463 1463 1464 1465 1466 1468 1470 1471 1473 1475 1476 1478 1479 1480 1481 1482 1482 1482 1483 1483 1483 1484 1484 1484 1484
1491 1486 1481 1477 1475 1475 1470 1468 1467 1466 1465 1465 1463 1461 1461 1460 1460 1460 1460 1460 1460 1461 1462 1464 1465 1467 1469 1471 1472 1474 1475 1476 1477 1478 1479 1479 1479 1480 1480 1480 1481 1481 1481 1481
1491 1487 1482 1478 1472 1467 1467 1467 1468 1466 1463 1463 1462 1460 1459 1459 1459 1458 1457 1457 1458 1458 1460 1461 1463 1464 1466 1468 1469 1471 1472 1473 1474 1475 1475 1476 1476 1477 1477 1477 1478 1478 1479 1479
1489 1488 1483 1478 1474 1470 1468 1468 1468 1468 1463 1463 1462 1460 1459 1459 1456 1457 1457 1456 1456 1456 1457 1458 1460 1461 1463 1465 1466 1468 1469 1470 1471 1471 1472 1472 1473 1473 1474 1475 1475 1476 1476 1476
1485 1484 1481 1477 1474 1468 1471 1470 1469 1466 1465 1465 1463 1462 1460 1459 1459 1459 1457 1456 1456 1456 1456 1457 1458 1459 1461 1462 1463 1465 1466 1467 1468 1468 1468 1469 1469 1470 1471 1471 1472 1473 1473 1474
1484 1480 1478 1475 1473 1473 1472 1470 1470 1469 1468 1466 1464 1462 1461 1460 1459 1458 1457 1456 1456 1455 1456 1456 1457 1458 1459 1460 1461 1462 1463 1464 1464 1464 1465 1465 1466 1467 1467 1468 1469 1470 1470 1471
1486 1484 1479 1477 1476 1475 1474 1473 1472 1470 1468 1467 1465 1463 1462 1460 1459 1458 1457 1456 1456 1456 1455 1456 1456 1457 1457 1458 1459 1460 1460 1460 1461 1461 1461 1462 1463 1463 1464 1465 1466 1467 1467 1468
1486 1486 1483 1479 1475 1475 1474 1472 1471 1470 1468 1466 1464 1463 1461 1460 1459 1458 1457 1456 1456 1456 1455 1455 1455 1455 1456 1456 1456 1457 1457 1457 1457 1458 1458 1459 1459 1460 1461 1462 1463 1463 1464 1465
1487 1485 1482 1478 1476 1474 1472 1471 1470 1468 1466 1465 1463 1462 1461 1460 1458 1457 1456 1456 1455 1455 1454 1454 1454 1454 1454 1454 1454 1454 1454 1454 1454 1455 1455 1456 1456 1457 1458 1459 1459 1460 1461 1462
1486 1485 1482 1478 1477 1476 1472 1470 1469 1467 1465 1463 1461 1460 1459 1458 1457 1456 1455 1455 1454 1453 1453 1452 1452 1451 1451 1451 1451 1451 1451 1451 1451 1451 1452 1452 1453 1453 1454 1455 1456 1456 1457 1458